Terug naar catalogus

NOAA 16 DEB

ActiefSSO
NORAD 41087·DEBRIS·🇺🇸 United States

Gelanceerd Sep 21, 2000 vanaf Vandenberg Space Force Base

Loading…

Volgende Passages (komende 24 uur)

TLE

VersSource: Space-Track

Epoch: Sep 13, 2026, 22:57 UTC

1 41087U 00055AW  26256.95675884  .00000616  00000-0  34757-3 0  9995
2 41087  98.5529 266.0133 0012298 271.6775  88.2990 14.13801510555272

Volg NOAA 16 DEB in realtime met AllMySat

Download on the App Store